Location: Dumpton Point
(51.3500°N, 1.4433°E)
Time: 23:06:44
(UTC+00:00)

Vanguard 2 Rocket - Pass Details

Date: 27 September 2022
Orbit: 555 x 3321 km, 32.9° (Epoch: 09 December)

Event Time Altitude Azimuth Distance (km) Brightness Sun altitude
Rises 01:22:21 0° 228° (SW) 4,811 - -36.2°
Reaches altitude 10° 01:28:04 10° 205° (SSW) 3,169 - -35.7°
Maximum altitude 01:31:12 13° 180° (S) 2,598 - -35.5°
Drops below altitude 10° 01:33:50 10° 154° (SSE) 2,537 - -35.2°
Sets 01:37:22 0° 125° (SE) 3,128 - -34.9°
